FFT3291 KLAS-KLAX

Flight info

Callsign FFT3291
Flight time 0h 45m
Altitude 28000
Route RADYR2 BLAQQ SHTNR ANJLL4
Aircraft A20N/M-SDE2E3FGHIRWXY/LB1

Departure

Time 2026-05-04 03:30
Airport Harry Reid International Airport (KLAS)

Arrival

Time 2026-05-04 04:15
Airport Los Angeles International Airport (KLAX)
Time Latitude Longitude Altitude Speed Heading
2026-05-04 02:59 36.08314 -115.13648 2075 ft 0 kts 123°
2026-05-04 03:18 36.08318 -115.13656 2076 ft 2 kts 123°
2026-05-04 03:18 36.08326 -115.13671 2076 ft 2 kts 123°
2026-05-04 03:19 36.08334 -115.13686 2076 ft 2 kts 123°
2026-05-04 03:19 36.08342 -115.13702 2076 ft 2 kts 123°
2026-05-04 03:19 36.08350 -115.13717 2076 ft 1 kts 123°
2026-05-04 03:19 36.08356 -115.13728 2076 ft 2 kts 111°
2026-05-04 03:20 36.08358 -115.13738 2076 ft 1 kts 98°
2026-05-04 03:20 36.08359 -115.13741 2076 ft 0 kts 103°
2026-05-04 03:22 36.08358 -115.13739 2076 ft 1 kts 101°
2026-05-04 03:22 36.08364 -115.13732 2076 ft 3 kts 33°
2026-05-04 03:23 36.08393 -115.13708 2075 ft 6 kts 33°
2026-05-04 03:23 36.08434 -115.13654 2073 ft 10 kts 64°
2026-05-04 03:23 36.08444 -115.13544 2069 ft 15 kts 89°
2026-05-04 03:23 36.08404 -115.13431 2066 ft 14 kts 134°
2026-05-04 03:24 36.08340 -115.13378 2067 ft 9 kts 176°
2026-05-04 03:24 36.08275 -115.13376 2068 ft 9 kts 180°
2026-05-04 03:24 36.08214 -115.13376 2069 ft 8 kts 181°
2026-05-04 03:24 36.08158 -115.13376 2071 ft 7 kts 180°
2026-05-04 03:25 36.08099 -115.13376 2072 ft 8 kts 178°
2026-05-04 03:25 36.08039 -115.13372 2073 ft 8 kts 178°
2026-05-04 03:25 36.07982 -115.13368 2074 ft 7 kts 178°
2026-05-04 03:25 36.07928 -115.13369 2075 ft 7 kts 181°
2026-05-04 03:26 36.07878 -115.13371 2076 ft 6 kts 182°
2026-05-04 03:26 36.07834 -115.13350 2076 ft 11 kts 118°
2026-05-04 03:26 36.07827 -115.13241 2074 ft 14 kts 90°
2026-05-04 03:26 36.07827 -115.13107 2070 ft 16 kts 89°
2026-05-04 03:27 36.07828 -115.12947 2065 ft 19 kts 91°
2026-05-04 03:27 36.07827 -115.12772 2062 ft 20 kts 90°
2026-05-04 03:27 36.07828 -115.12589 2059 ft 21 kts 89°
2026-05-04 03:27 36.07830 -115.12396 2055 ft 22 kts 89°
2026-05-04 03:28 36.07806 -115.12236 2052 ft 17 kts 124°
2026-05-04 03:28 36.07751 -115.12151 2052 ft 2 kts 136°
2026-05-04 03:28 36.07749 -115.12149 2052 ft 1 kts 137°
2026-05-04 03:29 36.07719 -115.12131 2053 ft 8 kts 171°
2026-05-04 03:29 36.07651 -115.12152 2054 ft 13 kts 238°
2026-05-04 03:29 36.07641 -115.12342 2058 ft 47 kts 269°
2026-05-04 03:29 36.07642 -115.13035 2071 ft 109 kts 270°
2026-05-04 03:30 36.07642 -115.14183 2106 ft 157 kts 269°
2026-05-04 03:30 36.07669 -115.15572 2521 ft 164 kts 269°
2026-05-04 03:30 36.07743 -115.16983 3049 ft 167 kts 269°
2026-05-04 03:30 36.07836 -115.18406 3640 ft 169 kts 270°
2026-05-04 03:31 36.07853 -115.19868 4073 ft 174 kts 259°
2026-05-04 03:31 36.07632 -115.21392 4340 ft 187 kts 255°
2026-05-04 03:31 36.07350 -115.23034 4576 ft 205 kts 255°
2026-05-04 03:31 36.06966 -115.24789 4825 ft 221 kts 240°
2026-05-04 03:32 36.05936 -115.26260 5135 ft 236 kts 213°
2026-05-04 03:32 36.04372 -115.27106 5469 ft 254 kts 200°
2026-05-04 03:32 36.02682 -115.27843 5968 ft 264 kts 201°
2026-05-04 03:32 36.00951 -115.28619 6738 ft 264 kts 201°
2026-05-04 03:33 35.99218 -115.29314 7459 ft 267 kts 196°
2026-05-04 03:33 35.97417 -115.29845 8262 ft 267 kts 191°
2026-05-04 03:33 35.95618 -115.30294 9037 ft 268 kts 191°
2026-05-04 03:33 35.93792 -115.30744 9829 ft 270 kts 191°
2026-05-04 03:34 35.91953 -115.31194 10604 ft 273 kts 190°
2026-05-04 03:34 35.90037 -115.31663 11092 ft 289 kts 189°
2026-05-04 03:34 35.87996 -115.32162 11506 ft 307 kts 189°
2026-05-04 03:34 35.85842 -115.32684 11924 ft 324 kts 190°
2026-05-04 03:35 35.83606 -115.33234 12609 ft 332 kts 190°
2026-05-04 03:35 35.81350 -115.33790 13387 ft 335 kts 190°
2026-05-04 03:35 35.79044 -115.34351 14173 ft 337 kts 190°
2026-05-04 03:35 35.76774 -115.34903 14902 ft 339 kts 191°
2026-05-04 03:36 35.74440 -115.35472 15595 ft 344 kts 192°
2026-05-04 03:36 35.72071 -115.36053 16247 ft 348 kts 192°
2026-05-04 03:36 35.69702 -115.36633 16902 ft 352 kts 193°
2026-05-04 03:36 35.67275 -115.37228 17505 ft 357 kts 194°
2026-05-04 03:37 35.64835 -115.37822 18198 ft 358 kts 194°
2026-05-04 03:37 35.62354 -115.38312 18808 ft 364 kts 191°
2026-05-04 03:37 35.59816 -115.38545 19440 ft 368 kts 187°
2026-05-04 03:37 35.57267 -115.38509 20026 ft 374 kts 183°
2026-05-04 03:38 35.54665 -115.38336 20586 ft 377 kts 184°
2026-05-04 03:38 35.52016 -115.38149 21092 ft 382 kts 184°
2026-05-04 03:38 35.49391 -115.38331 21566 ft 372 kts 201°
2026-05-04 03:38 35.47110 -115.39633 22137 ft 361 kts 219°
2026-05-04 03:39 35.45199 -115.41562 22721 ft 358 kts 225°
2026-05-04 03:39 35.43322 -115.43578 23298 ft 360 kts 225°
2026-05-04 03:39 35.41437 -115.45573 23862 ft 361 kts 225°
2026-05-04 03:39 35.39524 -115.47588 24309 ft 365 kts 225°
2026-05-04 03:40 35.37595 -115.49609 24791 ft 367 kts 225°
2026-05-04 03:40 35.35638 -115.51650 25234 ft 370 kts 225°
2026-05-04 03:40 35.33660 -115.53710 25645 ft 373 kts 225°
2026-05-04 03:40 35.31695 -115.55753 26084 ft 375 kts 225°
2026-05-04 03:41 35.29691 -115.57832 26536 ft 376 kts 225°
2026-05-04 03:41 35.27690 -115.59900 26931 ft 378 kts 225°
2026-05-04 03:41 35.25692 -115.61976 27308 ft 380 kts 225°
2026-05-04 03:41 35.23673 -115.64059 27660 ft 383 kts 225°
2026-05-04 03:42 35.21626 -115.66175 27877 ft 384 kts 224°
2026-05-04 03:42 35.19586 -115.68278 27882 ft 383 kts 225°
2026-05-04 03:42 35.17578 -115.70357 27878 ft 381 kts 225°
2026-05-04 03:42 35.15550 -115.72447 27859 ft 384 kts 225°
2026-05-04 03:43 35.13513 -115.74551 27865 ft 382 kts 224°
2026-05-04 03:43 35.11479 -115.76642 27856 ft 381 kts 225°
2026-05-04 03:43 35.09452 -115.78725 27850 ft 382 kts 225°
2026-05-04 03:43 35.07415 -115.80822 27842 ft 382 kts 225°
2026-05-04 03:44 35.05375 -115.82918 27847 ft 382 kts 225°
2026-05-04 03:44 35.03348 -115.84999 27838 ft 383 kts 225°
2026-05-04 03:44 35.01323 -115.87085 27829 ft 381 kts 225°
2026-05-04 03:44 34.99287 -115.89167 27830 ft 382 kts 225°
2026-05-04 03:45 34.97263 -115.91245 27828 ft 382 kts 225°
2026-05-04 03:45 34.95213 -115.93344 27826 ft 382 kts 224°
2026-05-04 03:45 34.93185 -115.95415 27830 ft 381 kts 225°
2026-05-04 03:45 34.91161 -115.97490 27837 ft 380 kts 225°
2026-05-04 03:46 34.89143 -115.99554 27843 ft 378 kts 225°
2026-05-04 03:46 34.87133 -116.01605 27846 ft 380 kts 225°
2026-05-04 03:46 34.85125 -116.03652 27851 ft 380 kts 225°
2026-05-04 03:46 34.83082 -116.05738 27856 ft 379 kts 225°
2026-05-04 03:47 34.81071 -116.07791 27856 ft 379 kts 225°
2026-05-04 03:47 34.79069 -116.09830 27853 ft 379 kts 225°
2026-05-04 03:47 34.77034 -116.11902 27857 ft 380 kts 225°
2026-05-04 03:47 34.75006 -116.13969 27861 ft 379 kts 225°
2026-05-04 03:48 34.72998 -116.16011 27866 ft 379 kts 225°
2026-05-04 03:48 34.70974 -116.18063 27858 ft 380 kts 225°
2026-05-04 03:48 34.68938 -116.20130 27865 ft 379 kts 225°
2026-05-04 03:48 34.66933 -116.22172 27873 ft 378 kts 225°
2026-05-04 03:49 34.64896 -116.24234 27873 ft 378 kts 225°
2026-05-04 03:49 34.62886 -116.26270 27880 ft 379 kts 225°
2026-05-04 03:49 34.60873 -116.28310 27882 ft 377 kts 225°
2026-05-04 03:49 34.58867 -116.30338 27882 ft 379 kts 225°
2026-05-04 03:50 34.56822 -116.32406 27885 ft 379 kts 225°
2026-05-04 03:50 34.54817 -116.34438 27898 ft 378 kts 225°
2026-05-04 03:50 34.52805 -116.36472 27889 ft 378 kts 226°
2026-05-04 03:50 34.50776 -116.38519 27886 ft 379 kts 226°
2026-05-04 03:51 34.48748 -116.40566 27887 ft 377 kts 225°
2026-05-04 03:51 34.46744 -116.42587 27891 ft 375 kts 225°
2026-05-04 03:51 34.44741 -116.44630 27883 ft 376 kts 228°
2026-05-04 03:51 34.42932 -116.46886 27899 ft 371 kts 233°
2026-05-04 03:52 34.41366 -116.49324 27912 ft 370 kts 239°
2026-05-04 03:52 34.40018 -116.51972 27916 ft 367 kts 244°
2026-05-04 03:52 34.38845 -116.54723 27907 ft 366 kts 245°
2026-05-04 03:52 34.37700 -116.57452 27909 ft 367 kts 244°
2026-05-04 03:53 34.36550 -116.60210 27910 ft 367 kts 244°
2026-05-04 03:53 34.35415 -116.62945 27934 ft 365 kts 245°
2026-05-04 03:53 34.34297 -116.65640 27944 ft 349 kts 245°
2026-05-04 03:53 34.33233 -116.68224 27962 ft 344 kts 245°
2026-05-04 03:54 34.32182 -116.70830 27764 ft 342 kts 245°
2026-05-04 03:54 34.31160 -116.73390 27451 ft 342 kts 245°
2026-05-04 03:54 34.30130 -116.75965 27031 ft 340 kts 245°
2026-05-04 03:54 34.29098 -116.78526 26589 ft 337 kts 245°
2026-05-04 03:55 34.28077 -116.81069 26140 ft 335 kts 245°
2026-05-04 03:55 34.27065 -116.83578 25678 ft 332 kts 244°
2026-05-04 03:55 34.26067 -116.86049 25182 ft 330 kts 245°
2026-05-04 03:55 34.25068 -116.88523 24691 ft 327 kts 245°
2026-05-04 03:56 34.24073 -116.90986 24222 ft 324 kts 245°
2026-05-04 03:56 34.23092 -116.93406 23782 ft 321 kts 245°
2026-05-04 03:56 34.22125 -116.95827 23318 ft 320 kts 246°
2026-05-04 03:56 34.21254 -116.98256 22844 ft 318 kts 249°
2026-05-04 03:57 34.20485 -117.00758 22367 ft 317 kts 250°
2026-05-04 03:57 34.19795 -117.03280 21829 ft 318 kts 251°
2026-05-04 03:57 34.19101 -117.05812 21301 ft 317 kts 251°
2026-05-04 03:57 34.18415 -117.08317 20817 ft 315 kts 251°
2026-05-04 03:58 34.17065 -117.13281 19906 ft 311 kts 251°
2026-05-04 03:58 34.16395 -117.15758 19466 ft 308 kts 252°
2026-05-04 03:58 34.15727 -117.18196 18989 ft 308 kts 251°
2026-05-04 03:59 34.15055 -117.20638 18525 ft 306 kts 251°
2026-05-04 03:59 34.14385 -117.23070 18074 ft 304 kts 251°
2026-05-04 03:59 34.13718 -117.25486 17588 ft 304 kts 251°
2026-05-04 03:59 34.13055 -117.27898 17133 ft 303 kts 251°
2026-05-04 04:00 34.12397 -117.30303 16696 ft 303 kts 251°
2026-05-04 04:00 34.11711 -117.32817 16255 ft 325 kts 251°
2026-05-04 04:00 34.10990 -117.35399 15635 ft 332 kts 250°
2026-05-04 04:00 34.10257 -117.38084 14714 ft 342 kts 251°
2026-05-04 04:01 34.09571 -117.40816 13927 ft 338 kts 252°
2026-05-04 04:01 34.08918 -117.43449 13358 ft 322 kts 252°
2026-05-04 04:01 34.08303 -117.45935 13104 ft 302 kts 252°
2026-05-04 04:01 34.07708 -117.48315 12907 ft 292 kts 251°
2026-05-04 04:02 34.07039 -117.50590 12716 ft 286 kts 247°
2026-05-04 04:02 34.06263 -117.52796 12298 ft 286 kts 246°
2026-05-04 04:02 34.05474 -117.54994 11894 ft 286 kts 246°
2026-05-04 04:02 34.04689 -117.57178 11487 ft 286 kts 246°
2026-05-04 04:03 34.03889 -117.59404 11071 ft 286 kts 246°
2026-05-04 04:03 34.03109 -117.61565 10676 ft 285 kts 246°
2026-05-04 04:03 34.02316 -117.63766 10306 ft 283 kts 246°
2026-05-04 04:03 34.01553 -117.65885 10133 ft 273 kts 245°
2026-05-04 04:04 34.00911 -117.68002 10020 ft 261 kts 252°
2026-05-04 04:04 34.00524 -117.70114 9767 ft 259 kts 259°
2026-05-04 04:04 34.00298 -117.72235 9414 ft 259 kts 261°
2026-05-04 04:04 34.00092 -117.74410 9069 ft 258 kts 262°
2026-05-04 04:05 33.99889 -117.76532 8729 ft 258 kts 261°
2026-05-04 04:05 33.99685 -117.78667 8459 ft 254 kts 261°
2026-05-04 04:05 33.99478 -117.80771 8140 ft 251 kts 262°
2026-05-04 04:05 33.99276 -117.82839 7882 ft 247 kts 262°
2026-05-04 04:06 33.99078 -117.84874 7579 ft 246 kts 262°
2026-05-04 04:06 33.98878 -117.86931 7313 ft 247 kts 262°
2026-05-04 04:06 33.98677 -117.88995 7045 ft 246 kts 262°
2026-05-04 04:06 33.98483 -117.91013 6834 ft 245 kts 262°
2026-05-04 04:07 33.98281 -117.93071 6574 ft 246 kts 262°
2026-05-04 04:07 33.98082 -117.95098 6333 ft 246 kts 262°
2026-05-04 04:07 33.97878 -117.97147 6093 ft 244 kts 262°
2026-05-04 04:07 33.97680 -117.99141 5879 ft 238 kts 262°
2026-05-04 04:08 33.97486 -118.01107 5644 ft 233 kts 262°
2026-05-04 04:08 33.97293 -118.03047 5415 ft 228 kts 262°
2026-05-04 04:08 33.97108 -118.04903 5201 ft 222 kts 262°
2026-05-04 04:08 33.96936 -118.06736 5006 ft 216 kts 263°
2026-05-04 04:09 33.96790 -118.08519 4778 ft 211 kts 263°
2026-05-04 04:09 33.96639 -118.10253 4596 ft 195 kts 263°
2026-05-04 04:09 33.96489 -118.11835 4366 ft 182 kts 261°
2026-05-04 04:09 33.96341 -118.13300 4112 ft 173 kts 261°
2026-05-04 04:10 33.96191 -118.14726 3881 ft 173 kts 261°
2026-05-04 04:10 33.96039 -118.16154 3651 ft 174 kts 261°
2026-05-04 04:10 33.95884 -118.17605 3417 ft 172 kts 261°
2026-05-04 04:10 33.95731 -118.19029 3187 ft 170 kts 262°
2026-05-04 04:11 33.95582 -118.20440 2964 ft 168 kts 262°
2026-05-04 04:11 33.95442 -118.21772 2765 ft 151 kts 262°
2026-05-04 04:11 33.95320 -118.22949 2546 ft 136 kts 261°
2026-05-04 04:11 33.95205 -118.24047 2358 ft 132 kts 261°
2026-05-04 04:12 33.95090 -118.25153 2200 ft 132 kts 261°
2026-05-04 04:12 33.94976 -118.26236 2047 ft 130 kts 262°
2026-05-04 04:12 33.94864 -118.27317 1885 ft 129 kts 262°
2026-05-04 04:12 33.94754 -118.28387 1713 ft 128 kts 263°
2026-05-04 04:13 33.94643 -118.29464 1547 ft 130 kts 262°
2026-05-04 04:13 33.94531 -118.30540 1366 ft 129 kts 262°
2026-05-04 04:13 33.94420 -118.31612 1195 ft 129 kts 262°
2026-05-04 04:13 33.94310 -118.32685 1024 ft 129 kts 262°
2026-05-04 04:14 33.94199 -118.33762 850 ft 129 kts 262°
2026-05-04 04:14 33.94088 -118.34836 675 ft 130 kts 262°
2026-05-04 04:14 33.93979 -118.35908 511 ft 129 kts 262°
2026-05-04 04:14 33.93868 -118.36985 337 ft 129 kts 263°
2026-05-04 04:15 33.93758 -118.38051 167 ft 129 kts 263°
2026-05-04 04:15 33.93652 -118.39082 107 ft 111 kts 263°
2026-05-04 04:15 33.93578 -118.39809 113 ft 63 kts 263°
2026-05-04 04:15 33.93575 -118.40206 120 ft 34 kts 286°
2026-05-04 04:16 33.93615 -118.40349 120 ft 5 kts 289°
2026-05-04 04:16 33.93624 -118.40408 122 ft 10 kts 274°
2026-05-04 04:16 33.93619 -118.40501 123 ft 10 kts 264°
2026-05-04 04:16 33.93611 -118.40586 125 ft 9 kts 263°
2026-05-04 04:17 33.93603 -118.40669 125 ft 9 kts 263°
2026-05-04 04:17 33.93596 -118.40736 125 ft 7 kts 263°
2026-05-04 04:17 33.93597 -118.40798 126 ft 7 kts 288°
2026-05-04 04:17 33.93613 -118.40855 127 ft 7 kts 288°
2026-05-04 04:18 33.93654 -118.40894 127 ft 9 kts 343°
2026-05-04 04:18 33.93746 -118.40910 127 ft 13 kts 351°
2026-05-04 04:18 33.93781 -118.40916 127 ft 0 kts 351°
2026-05-04 04:18 33.93827 -118.40926 127 ft 9 kts 345°
2026-05-04 04:19 33.93859 -118.40991 127 ft 10 kts 264°
2026-05-04 04:19 33.93851 -118.41087 126 ft 12 kts 264°
2026-05-04 04:19 33.93843 -118.41180 126 ft 11 kts 264°
2026-05-04 04:19 33.93870 -118.41262 126 ft 12 kts 334°
2026-05-04 04:20 33.93964 -118.41280 124 ft 14 kts 353°
2026-05-04 04:20 33.94064 -118.41307 122 ft 13 kts 309°
2026-05-04 04:20 33.94115 -118.41402 121 ft 12 kts 299°
2026-05-04 04:20 33.94127 -118.41427 121 ft 0 kts 300°